Location: Unspecified
(25.6830°N, 0.0000°E)
Time: 00:28:01
(UTC+00:00)

ISS - Visible Passes

Search period start: 13 November 2019 00:00
Search period end: 23 November 2019 00:00
Orbit: 412 x 421 km, 51.6° (Epoch: 13 November)

Date Brightness Start Highest point End Pass type
(mag) Time Alt. Az. Time Alt. Az. Time Alt. Az.
13 Nov -1.2 04:48:32 12° N 04:50:14 16° NE 04:52:25 10° E visible
14 Nov -3.7 05:35:33 11° NW 05:38:40 64° SW 05:41:59 10° SSE visible
15 Nov -3.3 04:49:42 47° N 04:50:18 55° NE 04:53:36 10° SE visible
16 Nov -0.6 04:03:55 15° E 04:03:55 15° E 04:04:46 10° ESE visible
16 Nov -1.8 05:36:52 12° W 05:38:23 15° SW 05:40:25 10° SSW visible
16 Nov -1.3 18:58:38 10° SSW 18:59:27 16° SSW 18:59:27 16° SSW visible
17 Nov -2.2 04:51:08 25° SSW 04:51:08 25° SSW 04:53:06 10° SSE visible
17 Nov -2.2 18:11:01 10° S 18:13:29 19° SE 18:13:42 19° ESE visible
18 Nov -2.2 18:58:24 10° WSW 19:00:48 35° W 19:00:48 35° W visible
19 Nov -3.9 18:09:49 10° SW 18:13:09 86° SE 18:14:52 26° NE visible
20 Nov -1.0 18:59:54 10° WNW 19:01:34 13° NW 19:01:46 13° NW visible
21 Nov -1.7 18:10:14 10° W 18:12:58 23° NW 18:15:38 11° NNE visible
